Regional Weather Roundup
Issued by NWS Charleston, SC

Current Version | Previous Version | Graphics & Text | Print | Product List | Glossary On
Versions: 1 2 3 4 5 6 7 8 9 10 11 12 13 14 15 16 17 18 19 20 21 22 23 24 25 26 27 28 29 30 31 32 33 34 35 36 37 38 39 40 41 42 43 44 45 46 47 48 49 50
680
ASUS42 KCHS 011913
RWRCHS

REGIONAL WEATHER ROUNDUP
NATIONAL WEATHER SERVICE CHARLESTON SC
300 PM EDT SUN MAY 01 2016

NOTE: "FAIR" INDICATES FEW OR NO CLOUDS BELOW 12,000 FEET WITH NO
SIGNIFICANT WEATHER AND/OR OBSTRUCTIONS TO VISIBILITY.

NOT ALL STATIONS ARE QUALITY CONTROLLED. USE DATA WITH CAUTION...
ESPECIALLY DEWPOINT OBSERVATIONS.

SCZ027-030-031-034>040-042>050-012000-
...SOUTHEAST SOUTH CAROLINA...

CITY           SKY/WX    TMP DP  RH WIND       PRES   REMARKS
N CHARLESTON   LGT RAIN  78  71  79 S9        30.04F
WATERFRONT PRK   N/A     77  72  84 S9        30.03F
MOUNT PLEASANT FAIR      77  72  83 S8        30.05F
JOHNS ISLAND   FAIR      82  73  74 S13       30.05F
PINOPOLIS        N/A     86  72  62 S6        29.95F HX  92
MONCKS CORNER  FAIR      79  64  61 S12G21    30.03F
SUMMERVILLE    FAIR      79  70  73 S5        30.05F
BEAUFORT MCAS  LGT RAIN  81  68  64 S7G17     30.04F
BEAUFORT ARPT  FAIR      81  68  65 S13G18    30.05S
HILTON HEAD IS PTSUNNY   77  70  78 S14G21    30.07S
WALTERBORO     MOCLDY    82  70  65 SE8       30.04S
ALLENDALE      FAIR      81  68  65 CALM      30.02S

...SOUTHERN MIDLANDS AND PEE DEE...

CITY           SKY/WX    TMP DP  RH WIND       PRES   REMARKS
GEORGETOWN     CLOUDY    77  68  73 S9        30.07F
KINGSTREE      MOCLDY    82  64  54 E3        30.03F
ORANGEBURG     CLOUDY    76  70  82 SE5       30.03F
BARNWELL       LGT RAIN  73  73 100 SE6       30.04R
AIKEN          FAIR      82  68  61 SW9       30.05F
MANNING        NOT AVBL
COLUMBIA       PTSUNNY   84  68  58 S10       29.99F
SUMTER         TSTM      70  68  94 SE16      30.02S FOG
FLORENCE       CLOUDY    67  65  93 E12       30.05F
MYRTLE BEACH   PTSUNNY   75  64  69 S12       30.08F
N MYRTLE BEACH CLOUDY    74  68  81 SE5       30.08F

$$

GAZ063-065-086>088-099>101-113>116-118-119-134>141-150-012000-
...SOUTHEAST GEORGIA...

CITY           SKY/WX    TMP DP  RH WIND       PRES   REMARKS
SAVANNAH ARPT  PTSUNNY   82  67  60 SE14      30.04F
HUNTER AAF     MOSUNNY   81  73  76 S12       30.02F
FORT STEWART   MOSUNNY   86  65  49 S5        30.00F
STATESBORO     PTSUNNY   88  72  57 S7        30.01F HX  95
SYLVANIA       CLOUDY    83  71  67 S3        30.03F
CLAXTON        FAIR      86  71  60 SE7       30.01F HX  92

...CSRA...CENTRAL AND FAR SOUTHEAST GEORGIA...

CITY           SKY/WX    TMP DP  RH WIND       PRES   REMARKS
THOMSON        SUNNY     89  67  49 W5        30.05F HX  92
AUGUSTA-BUSH   PTSUNNY   86  66  51 S9        29.99F
AUGUSTA-DANIEL MOSUNNY   89  64  43 VRB7      30.01F HX  90
SWAINSBORO     FAIR      81  72  74 S8        30.03F
VIDALIA        MOSUNNY   86  68  54 S9        30.01F
EASTMAN        FAIR      83  68  59 S9        30.05F
HAZLEHURST     FAIR      88  68  52 S7        30.01F HX  91
ALMA           MOSUNNY   86  67  52 S9        30.02F
WAYCROSS       MOSUNNY   86  68  54 SW6       30.02F
JESUP          MOCLDY    88  72  58 S7        30.03F HX  94
BAXLEY         FAIR      88  68  51 S9        30.01F HX  91
BRUNSWICK      MOSUNNY   88  70  55 SE16      30.04F HX  92
SAINT SIMONS   SUNNY     81  72  74 SE15      30.04F

$$

SCZ027-028-034-036>038-045-046-048>050-GAZ119-141-012000-
...LAKE AND SUPPLEMENTAL COASTAL OBSERVATIONS...

STATION/POSITION TIME  TEMP    WIND        PRES    WAVE   SWELL
                       AIR SEA DIR/SP/G            HT/PER HT/PER/DIR
                 (UTC) (F)     (DEG/KT/KT) (MB)    (FT/S) (FT/S/D)
WINYAH BAY       NOT AVBL
LAKE MURRAY      1800   80     230/  9/ 11 1015.6F
ACE BASIN NERRS  NOT AVBL
FORT PULASKI     1800   80 73  180/  6/ 12 1018.0F
SAPELO ISLAND    1800   84     150/ 11     1018.0S

$$

ANZ835-935-AMZ111-154-330-350-352-354-370-450-454-472-012000-
...C-MAN AND BUOY OBSERVATIONS...

STATION/POSITION TIME  TEMP    WIND        PRES    WAVE   SWELL
                       AIR SEA DIR/SP/G            HT/PER HT/PER/DIR
                 (UTC) (F)     (DEG/KT/KT) (MB)    (FT/S) (FT/S/D)
BUOY 41004       1850   76 74  170/ 10/ 12 1017.8F   4/ 7   3/ 7
BUOY 41008       NOT AVBL
FOLLY BEACH CMAN 1800   74     160/ 11/ 11 1018.4F
CAPERS NEARSHORE 1808   74 72  180/  8/ 12 1018.2F
FRIPP NEARSHORE  1808   75 74  180/  8/ 10 1017.2F


STATION/POSITION TIME  TEMP    WIND        PRES    WAVE   SWELL
                       AIR SEA DIR/SP/G            HT/PER HT/PER/DIR
                 (UTC) (F)     (DEG/KT/KT) (MB)    (FT/S) (FT/S/D)
5E ST. MARYS GA  1821      75                N/A     3/ 6
FRYING PAN BUOY  1800   74 72  170/  4/  6 1019.1F
BUOY 41025       1850   74 74  190/ 16/ 17 1019.2F   4/11   3/ 50/11
CAPE LOOKOUT NC  1800   71     180/  9/ 10 1019.3F
BUOY 41002       1850   72     140/ 10/ 12 1020.6F   4/10   3/ 10/10
BUOY 41010       1820   77 78  150/  8/ 10 1018.7S
ST AUGUSTINE FL  1900   75 74  140/ 11/ 12 1017.8F


$$




USA.gov is the U.S. government's official web portal to all federal, state and local government web resources and services.